CW9999 WFO Key West FL US current weather conditions

sailwx.info

Wind from 188 at 2 knots gusting 6

Air temperature 1.7° C
Dewpoint 0.2° C

Last reported at 2020-Jan-21 05:45 UTC.
Time now 2020-Jan-21 06:29 UTC

Location: N 43°57' E 012°27'.
View on Google Maps.

See reports from other nearby stations

  
Tides and Currents Weather Stations Pressure Air Temp Water Temp Dewpoint Dewpoint Depression Visibility Wind Speed Wind Dir Waves Ship Positions
date/time (UTC)wind fromknots sea level pressurealtimeterstation pressurevisibilityair tempwater tempwave heightnotes
2020-Jan-21 06:00 189 2 gusting 6 1.7
2020-Jan-21 05:45 188 2 gusting 6 1.7
2020-Jan-21 05:30 225 1 gusting 6 1.7
2020-Jan-21 05:15 179 2 gusting 5 1.7
2020-Jan-21 05:00 226 1 gusting 6 1.7
2020-Jan-21 04:45 195 3 gusting 6 1.7
2020-Jan-21 04:30 227 2 gusting 6 1.7
2020-Jan-21 04:16 243 1 gusting 4 2.2
2020-Jan-21 04:02 202 1 gusting 3 2.2
2020-Jan-21 03:46 264 0 gusting 4 2.2
2020-Jan-21 03:34 219 1 gusting 5 2.2
2020-Jan-21 03:17 311 2 gusting 7 2.8
2020-Jan-21 03:02 183 0 gusting 4 2.8
2020-Jan-21 02:47 195 0 gusting 2 2.8
2020-Jan-21 02:31 292 2.8
2020-Jan-21 02:17 050 2.8
2020-Jan-21 02:02 194 2.8
2020-Jan-21 01:46 271 0 gusting 4 2.8
2020-Jan-21 01:32 105 0 gusting 2 2.8
2020-Jan-21 01:16 213 1 gusting 4 2.8
2020-Jan-21 01:02 223 1 gusting 6 2.8
2020-Jan-21 00:46 225 0 gusting 5 2.8
2020-Jan-21 00:32 204 0 gusting 2 2.8
2020-Jan-21 00:16 189 0 gusting 3 2.8
2020-Jan-21 00:02 262 0 gusting 3 2.8
2020-Jan-20 23:46 169 2.8
2020-Jan-20 23:31 306 3.3
2020-Jan-20 23:18 030 3.3
2020-Jan-20 23:01 302 3.3
2020-Jan-20 22:46 360 0 gusting 2 3.9
2020-Jan-20 22:31 067 3.9
2020-Jan-20 22:16 038 3.9
2020-Jan-20 22:01 091 3.9
2020-Jan-20 21:46 074 0 gusting 2 3.9
2020-Jan-20 21:30 067 3.9
2020-Jan-20 21:16 039 0 gusting 2 3.9
2020-Jan-20 21:01 094 0 gusting 2 3.9
2020-Jan-20 20:46 128 0 gusting 4 3.9
2020-Jan-20 20:31 066 3.9
2020-Jan-20 20:15 022 0 gusting 5 3.9
2020-Jan-20 20:01 198 4.4
2020-Jan-20 19:45 047 0 gusting 6 4.4
2020-Jan-20 19:31 057 4.4
2020-Jan-20 19:15 046 4.4
2020-Jan-20 19:01 045 4.4
2020-Jan-20 18:45 053 0 gusting 4 4.4
2020-Jan-20 18:31 046 0 gusting 2 3.9
2020-Jan-20 18:16 086 3.9
2020-Jan-20 18:00 044 0 gusting 3 3.9
2020-Jan-20 17:45 034 1 gusting 3 3.9
2020-Jan-20 17:31 038 3.9
2020-Jan-20 17:15 027 1 gusting 5 3.9
2020-Jan-20 17:01 126 1 gusting 6 3.9
2020-Jan-20 16:46 030 1 gusting 6 3.9
2020-Jan-20 16:31 125 0 gusting 4 3.9
2020-Jan-20 16:16 034 3.9
2020-Jan-20 16:00 024 0 gusting 4 3.9
2020-Jan-20 15:45 028 0 gusting 4 3.9
2020-Jan-20 15:30 039 0 gusting 3 3.9
2020-Jan-20 15:15 040 1 gusting 3 3.9
2020-Jan-20 15:00 032 0 gusting 6 3.9
2020-Jan-20 14:45 024 0 gusting 4 3.9
2020-Jan-20 14:30 038 1 gusting 11 3.3
2020-Jan-20 14:15 088 0 gusting 3 3.3
2020-Jan-20 14:00 302 3.3
2020-Jan-20 13:45 017 2 gusting 6 3.3
2020-Jan-20 13:30 001 0 gusting 3 3.3
2020-Jan-20 13:15 036 1 gusting 5 3.3
2020-Jan-20 13:00 299 1 gusting 8 3.9
2020-Jan-20 12:45 318 2 gusting 7 4.4
2020-Jan-20 12:30 279 3 gusting 7 4.4
2020-Jan-20 12:17 304 1 gusting 6 3.9
2020-Jan-20 12:01 338 0 gusting 5 3.9
2020-Jan-20 11:48 283 1 gusting 5 3.9
2020-Jan-20 11:33 003 0 gusting 4 3.9
2020-Jan-20 11:17 240 1 gusting 5 3.9
2020-Jan-20 11:02 030 1 gusting 5 4.4
2020-Jan-20 10:47 061 1 gusting 5 4.4
2020-Jan-20 10:31 328 2 gusting 13 4.4
2020-Jan-20 10:17 024 6 gusting 13 4.4
2020-Jan-20 10:01 007 2 gusting 10 4.4
2020-Jan-20 09:46 042 0 gusting 6 3.9
2020-Jan-20 09:32 052 0 gusting 3 3.9
2020-Jan-20 09:17 026 0 gusting 4 3.9
2020-Jan-20 09:01 011 0 gusting 3 3.3
2020-Jan-20 08:47 049 0 gusting 4 3.3
2020-Jan-20 08:32 045 3.3
2020-Jan-20 08:16 040 0 gusting 4 3.9
2020-Jan-20 08:00 067 2 gusting 6 3.9
2020-Jan-20 07:47 101 1 gusting 8 4.4
2020-Jan-20 07:31 034 4 gusting 13 4.4
2020-Jan-20 07:15 067 1 gusting 5 3.9
2020-Jan-20 07:01 031 1 gusting 8 3.9
2020-Jan-20 06:46 020 3 gusting 12 3.9
2020-Jan-20 06:31 036 2 gusting 8 3.9
2020-Jan-20 06:16 132 2 gusting 10 3.9
2020-Jan-20 06:00 065 3 gusting 10 3.9
2020-Jan-20 05:45 061 2 gusting 5 3.9
2020-Jan-20 05:30 162 1 gusting 7 3.9
2020-Jan-20 05:15 065 2 gusting 9 3.9
2020-Jan-20 05:00 038 2 gusting 7 3.9
2020-Jan-20 04:45 016 1 gusting 6 3.9
2020-Jan-20 04:30 119 1 gusting 6 3.9
2020-Jan-20 04:15 171 1 gusting 5 3.9
2020-Jan-20 04:00 051 0 gusting 5 3.9
2020-Jan-20 03:45 116 0 gusting 6 3.9
2020-Jan-20 03:30 102 1 gusting 6 3.9
2020-Jan-20 03:03 320 2 gusting 7 3.9
2020-Jan-20 02:46 115 2 gusting 6 3.9
2020-Jan-20 02:32 333 0 gusting 5 4.4
2020-Jan-20 02:17 065 1 gusting 9 4.4
2020-Jan-20 02:01 134 1 gusting 6 4.4
2020-Jan-20 01:47 157 1 gusting 9 4.4
2020-Jan-20 01:31 171 1 gusting 6 4.4
2020-Jan-20 01:16 110 0 gusting 7 4.4
2020-Jan-20 01:01 103 0 gusting 5 4.4
2020-Jan-20 00:47 112 1 gusting 6 4.4
2020-Jan-20 00:31 038 2 gusting 9 4.4
2020-Jan-20 00:17 008 1 gusting 4 4.4
2020-Jan-20 00:02 107 2 gusting 6 4.4
2020-Jan-19 23:47 131 1 gusting 6 3.9
2020-Jan-19 23:31 061 1 gusting 7 3.9
2020-Jan-19 23:16 142 2 gusting 6 3.9
2020-Jan-19 23:01 107 2 gusting 6 3.9
2020-Jan-19 22:45 119 1 gusting 6 3.9
2020-Jan-19 22:30 106 1 gusting 6 3.9
2020-Jan-19 22:16 130 1 gusting 5 3.9
2020-Jan-19 22:01 139 1 gusting 6 4.4
2020-Jan-19 21:46 105 1 gusting 6 4.4
2020-Jan-19 21:31 126 1 gusting 6 4.4
2020-Jan-19 21:15 001 1 gusting 8 4.4
2020-Jan-19 21:00 192 2 gusting 7 4.4
2020-Jan-19 20:46 212 2 gusting 8 4.4
2020-Jan-19 20:30 121 4 gusting 8 4.4
2020-Jan-19 20:15 126 1 gusting 6 4.4
2020-Jan-19 20:00 129 3 gusting 6 4.4
2020-Jan-19 19:45 082 3 gusting 9 4.4
2020-Jan-19 19:30 194 1 gusting 8 4.4
2020-Jan-19 19:15 356 0 gusting 6 4.4
2020-Jan-19 19:00 219 1 gusting 6 5.0
2020-Jan-19 18:45 050 2 gusting 7 5.0
2020-Jan-19 18:30 138 3 gusting 9 5.0
2020-Jan-19 18:15 062 1 gusting 6 5.0
2020-Jan-19 18:00 118 1 gusting 6 4.4
2020-Jan-19 17:45 123 0 gusting 6 4.4
2020-Jan-19 17:30 123 1 gusting 4 4.4
2020-Jan-19 17:15 142 1 gusting 6 5.0
2020-Jan-19 17:00 125 1 gusting 5 5.0
2020-Jan-19 16:33 144 1 gusting 6 5.0
2020-Jan-19 16:17 163 0 gusting 6 5.0
2020-Jan-19 16:02 015 0 gusting 4 5.0
2020-Jan-19 15:32 024 0 gusting 3 5.6
2020-Jan-19 15:16 090 1 gusting 4 5.6
2020-Jan-19 15:01 108 0 gusting 6 5.6
2020-Jan-19 14:31 028 1 gusting 7 5.6
2020-Jan-19 14:16 004 1 gusting 7 5.6
2020-Jan-19 14:02 066 0 gusting 8 5.6
2020-Jan-19 13:31 078 1 gusting 8 5.6
2020-Jan-19 13:17 047 2 gusting 6 5.6
2020-Jan-19 13:01 037 5 gusting 9 5.6
2020-Jan-19 12:32 032 4 gusting 7 5.6
2020-Jan-19 12:16 046 6 gusting 8 5.6
2020-Jan-19 12:01 013 1 gusting 7 5.6
2020-Jan-19 11:31 053 0 gusting 6 5.6
2020-Jan-19 11:16 030 1 gusting 4 6.1
2020-Jan-19 11:01 037 1 gusting 4 5.6
2020-Jan-19 10:30 034 1 gusting 4 5.0
2020-Jan-19 10:17 066 0 gusting 2 4.4
2020-Jan-19 10:00 030 4.4
2020-Jan-19 09:30 036 4.4
2020-Jan-19 09:16 044 0 gusting 2 4.4
2020-Jan-19 09:01 159 4.4
2020-Jan-19 08:31 035 1 gusting 3 3.9
2020-Jan-19 08:15 082 3.9
2020-Jan-19 08:00 057 3.9
2020-Jan-19 07:32 211 3.9
2020-Jan-19 07:18 233 0 gusting 2 3.9
2020-Jan-19 07:02 263 0 gusting 5 3.9
2020-Jan-19 06:32 295 3.9
2020-Jan-19 06:18 338 0 gusting 2 3.9
2020-Jan-19 06:02 288 3.9